Theta_e
311 310 311 312 312 311 301 290 282 295 307 292 291 287 292 298 297 299 297 294 291 288 290 287 285 286 288 293 291 288 288 284 282 285 285 287 285 286 285 281 280 279 278 281
310 310 310 310 311 308 295 287 287 295 301 288 286 292 294 296 295 296 296 295 296 296 293 289 290 288 294 295 293 288 288 284 280 283 283 285 284 285 285 284 282 279 277 282
309 310 310 310 311 310 296 288 282 288 294 295 289 291 291 292 297 296 296 296 297 294 291 293 291 290 295 296 294 303 295 284 283 281 282 285 282 284 285 285 279 282 284 288
309 309 309 309 309 309 296 288 283 287 281 289 289 289 290 289 289 294 294 294 292 291 289 290 288 291 291 295 297 293 288 283 283 285 286 286 286 286 285 283 286 283 284 286
308 309 308 308 309 307 294 286 284 286 284 286 284 287 285 286 289 291 290 290 290 291 289 291 287 288 291 291 292 292 292 284 283 283 288 287 285 287 286 285 286 286 286 287
308 308 308 308 308 303 292 291 291 289 285 282 281 281 284 287 287 288 293 290 288 287 290 292 291 292 292 292 291 291 292 285 282 280 283 287 285 288 288 289 288 288 286 292
308 308 307 308 308 304 296 292 290 287 282 283 283 286 286 285 285 284 289 291 288 291 293 292 293 292 292 293 293 295 292 291 288 286 285 279 287 288 289 289 290 291 292 293
308 307 306 306 308 306 297 296 293 290 284 284 285 286 285 286 287 287 289 290 292 293 290 286 282 282 284 288 291 292 295 292 287 284 284 288 290 293 292 289 290 292 290 294
307 306 306 306 307 307 298 298 299 293 288 286 288 284 285 283 281 283 287 291 291 290 288 285 278 276 281 280 284 291 292 294 289 286 281 280 285 289 295 292 284 293 293 293
306 306 306 306 307 307 298 295 298 293 288 290 291 286 286 287 284 282 284 286 287 290 283 281 278 277 283 277 279 280 283 286 285 285 284 287 289 291 296 286 285 291 292 291
306 306 306 306 306 306 299 296 298 294 288 288 293 292 288 288 286 282 283 284 283 282 280 279 279 278 281 280 282 282 281 280 279 282 282 281 290 291 287 287 291 291 292 291
305 306 306 306 306 306 304 293 298 300 293 289 293 294 296 294 292 288 286 284 284 286 280 280 283 281 280 280 276 284 279 284 284 285 284 289 290 289 292 292 291 291 292 293
306 305 305 306 306 306 303 293 294 297 292 290 290 289 294 296 296 296 287 286 289 286 288 283 280 275 280 274 277 279 282 287 284 283 286 288 289 292 293 294 293 293 293 293
306 305 305 305 306 306 305 294 294 294 293 286 286 292 290 295 296 295 295 293 291 289 287 285 284 281 284 280 281 281 284 284 283 283 286 289 290 291 293 293 294 294 294 295
305 305 305 305 306 306 301 296 295 298 291 285 286 288 291 292 293 293 293 292 290 289 286 284 282 285 284 285 285 282 286 284 282 281 287 287 288 291 292 292 292 293 294 294
305 304 304 305 305 302 297 287 293 299 298 289 282 287 285 289 291 290 290 291 289 289 286 284 287 288 286 281 279 285 287 289 289 286 290 289 290 292 293 292 293 294 294 295
304 304 304 304 304 296 292 287 292 300 300 289 283 280 284 286 287 287 287 288 290 289 287 286 286 286 287 284 279 285 288 289 290 291 290 288 290 289 292 293 293 295 294 294
304 304 304 303 303 300 293 297 301 299 294 291 283 278 280 285 281 280 285 284 288 289 287 286 285 286 285 280 284 286 287 288 289 289 291 291 292 292 292 292 292 291 291 292
303 303 302 296 294 288 291 300 303 296 292 283 283 276 273 285 284 286 284 286 283 286 285 285 286 283 280 283 285 286 288 287 287 289 289 289 288 289 290 290 290 289 290 292
303 297 291 285 288 297 299 293 288 288 287 287 281 283 280 283 280 279 280 285 282 279 281 284 283 281 286 287 288 288 289 289 289 287 286 288 288 289 289 289 291 291 291 292
294 287 285 289 297 291 286 283 283 283 280 284 285 283 280 283 278 278 282 275 273 276 276 279 273 276 283 286 286 287 287 289 289 289 290 290 290 290 290 291 292 293 293 293
293 291 293 292 287 284 282 279 278 280 275 277 281 282 284 282 282 279 278 277 277 273 279 278 275 280 284 288 289 290 291 291 290 291 290 291 291 291 292 292 294 295 295 296
294 287 284 283 283 277 276 266 275 275 281 280 281 279 280 280 282 279 277 272 271 279 276 275 279 284 289 288 288 288 288 288 287 286 287 287 287 289 289 288 289 290 291 293
285 282 278 277 273 275 271 273 277 281 279 282 284 280 282 283 281 278 278 275 277 274 274 276 282 285 285 286 286 285 284 285 285 286 286 285 285 285 286 287 288 288 290 291
283 282 275 277 276 274 276 278 278 282 281 283 280 282 283 280 279 278 278 276 274 275 276 279 282 285 285 284 284 283 283 284 284 284 284 285 285 284 284 286 288 289 289 288
284 281 274 272 273 274 273 278 277 283 283 284 280 273 274 272 272 275 274 274 272 276 279 283 287 285 284 283 283 283 283 283 283 283 283 283 283 283 284 285 285 286 288 288
282 279 282 274 273 276 276 279 280 285 282 277 276 273 271 271 274 276 279 275 278 280 282 287 286 284 283 283 283 282 282 282 281 281 282 282 282 283 282 281 282 284 285 285
Wind_Speed
11 12 13 14 14 15 8 2 4 5 5 5 1 1 3 3 3 4 4 3 3 3 4 3 2 4 3 6 4 5 3 4 4 10 1 2 3 7 6 6 4 2 2 11
10 10 12 13 12 8 2 2 3 4 3 1 3 4 5 4 4 4 5 4 4 3 3 5 2 3 3 12 6 2 1 2 2 9 4 3 4 5 4 4 4 8 4 9
9 9 10 11 11 6 4 3 4 5 4 2 1 6 4 5 7 1 4 4 6 5 3 2 5 8 5 11 8 9 1 4 6 7 3 3 4 5 6 6 4 7 14 25
8 8 9 10 11 6 4 3 1 0 4 3 4 5 4 7 7 5 8 4 10 7 4 6 4 8 9 7 12 10 6 4 3 6 7 4 6 7 6 9 10 13 6 20
11 9 7 8 6 5 4 1 1 2 1 3 3 3 2 2 3 5 4 4 9 6 5 5 5 11 4 5 7 7 8 5 6 5 8 9 13 11 11 10 10 13 13 30
11 9 7 6 4 5 1 1 1 2 2 2 1 3 3 2 4 2 1 5 7 10 5 5 10 11 12 13 10 5 3 3 6 5 5 12 20 10 18 14 11 10 18 21
13 10 9 7 7 4 3 2 3 3 4 4 5 3 3 4 3 5 6 6 2 2 7 11 9 13 16 17 16 14 9 5 3 10 5 15 7 3 1 8 11 12 14 16
13 11 11 11 8 4 2 2 3 2 3 4 3 8 5 4 5 6 4 8 8 4 5 4 7 3 4 11 19 21 20 12 5 7 12 20 32 22 19 9 18 7 8 14
12 13 12 11 10 7 3 3 3 2 3 6 6 3 4 5 3 3 6 8 2 2 2 2 3 3 5 5 10 5 14 14 11 8 6 11 2 4 10 2 5 11 15 14
14 12 11 12 11 10 4 3 4 2 3 5 6 5 5 3 2 2 4 4 2 3 2 2 3 6 3 6 7 6 7 4 13 12 12 15 6 17 16 15 7 15 7 8
13 12 11 12 11 13 5 3 6 5 3 4 7 7 6 2 4 6 3 3 2 2 2 3 4 4 5 5 10 11 12 8 7 7 12 18 15 6 2 5 12 17 16 6
14 13 13 12 13 12 5 3 3 3 4 4 2 9 18 14 10 3 4 4 3 4 2 1 3 3 2 3 5 5 4 6 6 5 6 12 21 16 7 9 16 19 21 20
14 13 14 14 14 13 8 4 4 2 2 5 6 13 12 8 13 7 7 4 6 3 5 3 4 6 3 4 8 10 8 11 13 13 22 23 25 18 17 18 19 16 15 15
14 15 15 14 14 14 12 4 4 3 2 5 8 1 6 9 13 15 15 18 4 1 3 5 5 6 6 7 9 7 9 5 10 19 23 23 25 21 19 16 13 17 20 20
16 15 14 14 13 13 6 3 5 7 5 3 4 5 10 9 13 18 17 15 14 8 5 5 7 6 5 11 11 15 16 23 16 19 21 19 24 28 27 19 23 23 19 21
16 15 15 13 11 1 3 4 2 8 5 3 4 4 4 7 15 11 12 12 8 8 5 8 7 14 6 6 10 22 24 24 23 26 29 27 28 30 28 29 24 26 28 24
17 14 13 12 10 3 4 5 4 8 5 2 4 5 3 2 3 2 3 5 4 4 4 7 10 7 5 4 12 29 28 27 25 19 20 22 27 22 26 24 25 24 23 23
17 15 13 13 9 3 3 3 6 6 2 2 4 5 4 4 2 3 3 4 5 6 5 3 8 5 6 10 31 29 26 26 23 23 22 23 24 27 29 29 24 23 23 25
16 12 10 2 2 2 4 2 12 2 3 3 2 1 4 0 2 2 1 2 4 3 4 4 5 5 11 19 18 18 22 17 20 20 20 21 18 23 26 27 26 22 21 21
13 3 2 2 4 3 3 4 2 3 3 5 4 2 4 3 1 2 1 2 3 3 5 2 6 13 24 21 17 17 20 22 22 21 28 23 22 21 24 25 22 20 19 18
3 3 4 2 2 2 1 3 3 3 4 4 4 7 5 2 3 5 4 3 2 3 6 6 4 7 8 8 8 6 6 7 8 10 14 15 16 18 18 20 19 18 20 19
6 5 3 2 1 2 3 4 2 4 6 3 4 5 5 3 2 2 2 2 1 8 2 3 6 4 3 4 9 12 12 14 18 18 20 21 21 20 21 19 19 18 19 21
4 2 4 3 3 4 6 7 4 3 4 4 3 3 2 2 1 2 2 3 6 2 3 5 6 2 5 10 13 16 17 19 22 23 20 21 22 19 19 20 18 20 20 19
3 5 6 4 4 7 7 6 4 5 3 3 2 0 3 3 3 2 4 6 1 4 4 6 1 5 8 12 14 17 19 19 20 19 18 19 18 17 19 19 19 19 17 17
4 4 6 9 4 3 3 3 1 2 2 3 1 1 3 2 3 3 3 4 6 6 5 1 3 8 11 11 12 13 13 15 15 15 15 15 15 15 16 15 15 15 14 14
3 3 1 2 2 4 1 3 2 3 4 3 3 2 2 5 5 4 8 4 7 5 1 3 5 8 9 9 10 11 12 13 14 14 14 14 15 15 15 13 12 13 11 10
5 5 4 3 1 4 3 4 4 4 4 3 3 5 13 0 4 5 4 6 4 1 3 3 3 6 7 7 8 10 12 13 14 15 13 14 14 13 13 14 16 13 11 12
Wind_Direction
354 349 349 348 347 340 44 36 11 307 335 47 51 170 228 331 333 347 340 5 350 26 6 316 248 258 251 343 148 159 246 156 234 223 123 183 180 205 153 134 242 244 172 271
340 347 348 346 349 27 18 34 278 314 26 35 314 313 319 338 330 0 0 327 38 39 344 341 299 314 30 19 10 1 201 263 339 331 15 11 221 199 161 115 99 200 165 262
339 345 347 349 347 14 75 35 1 328 40 60 331 9 339 315 342 92 319 284 21 2 336 260 297 350 355 336 353 344 170 187 189 200 223 128 222 209 206 159 154 236 230 270
329 335 344 348 350 11 78 36 309 6 336 34 20 29 348 324 340 10 5 95 47 19 314 337 46 6 331 344 8 8 41 282 220 257 265 244 243 242 199 199 225 220 264 247
317 325 330 337 358 63 72 85 44 4 305 317 12 351 299 354 350 323 1 21 1 9 3 30 352 355 352 302 342 18 358 298 348 282 285 275 268 249 235 223 243 263 267 268
300 307 317 308 331 82 105 253 15 97 314 25 49 237 237 57 27 260 330 30 337 326 331 343 303 272 250 249 272 310 293 322 353 266 333 328 286 224 218 228 211 227 249 271
297 297 295 288 288 173 144 207 103 108 258 196 197 236 246 264 288 258 301 315 262 256 348 307 261 248 242 233 232 223 237 255 246 283 323 265 264 87 73 231 253 255 266 273
297 297 291 286 280 190 154 167 148 198 250 218 227 243 242 277 262 268 247 268 235 335 320 292 316 304 253 231 223 219 215 218 244 255 240 282 281 291 279 279 295 230 258 296
304 299 286 274 273 261 128 211 144 177 278 218 219 254 230 238 236 296 242 269 278 170 228 254 245 259 10 303 328 209 229 237 227 209 243 254 345 76 62 204 241 17 30 7
295 291 289 277 273 258 152 230 177 141 251 197 193 219 236 190 199 237 289 268 307 142 199 241 239 245 239 253 233 297 296 270 237 246 248 261 9 328 327 287 299 337 348 329
287 286 285 276 272 263 157 228 178 161 226 229 205 203 200 270 189 198 241 18 298 57 198 211 233 241 233 265 255 244 240 242 257 250 257 266 20 14 298 344 314 313 310 290
284 285 288 281 279 269 213 229 169 162 225 259 237 225 227 214 240 205 218 206 183 224 145 275 286 296 314 355 278 334 270 228 262 271 289 304 300 271 245 285 300 311 297 306
273 282 277 283 279 271 229 185 157 168 250 256 223 238 239 225 229 206 242 244 211 229 172 183 235 240 155 245 254 251 247 244 252 271 270 263 279 282 282 280 278 276 278 290
269 271 274 280 284 274 248 164 187 148 265 266 264 355 243 211 219 218 217 237 240 161 135 229 243 254 207 254 259 251 245 274 251 261 272 284 278 270 271 280 290 294 281 284
271 270 277 285 290 281 268 180 194 183 176 281 275 273 228 213 205 217 223 224 233 231 239 236 242 244 250 251 264 261 244 249 244 253 260 265 275 281 284 277 284 279 279 287
270 267 273 279 281 280 82 326 236 200 177 256 263 285 248 227 212 208 209 214 217 216 220 238 233 237 210 246 250 260 258 251 250 250 255 261 266 273 277 280 278 276 283 280
266 265 267 273 255 154 162 200 229 173 140 238 262 273 300 238 142 186 160 154 194 206 224 233 248 245 230 247 261 256 260 257 253 268 273 270 266 265 274 275 281 280 278 276
257 261 264 269 243 201 289 233 151 137 194 222 247 259 319 164 156 233 174 165 179 208 221 234 235 237 202 243 247 258 268 271 274 271 268 261 269 277 274 277 278 276 273 274
247 256 270 69 106 193 229 227 186 145 175 251 243 191 271 143 234 182 218 157 197 217 227 218 182 210 226 241 264 266 269 280 282 288 281 276 270 269 273 277 279 272 267 268
232 152 144 214 222 229 110 23 117 223 205 222 238 169 243 142 116 273 155 195 217 240 228 156 228 243 248 262 279 280 285 285 287 288 287 291 285 280 281 279 279 274 274 275
120 157 197 226 271 84 72 195 200 187 234 223 232 203 215 208 174 212 205 199 235 235 259 192 257 265 271 277 275 299 294 292 288 267 273 282 278 287 288 283 281 284 276 271
139 132 120 104 140 158 194 192 253 224 231 245 200 209 196 199 135 148 266 205 157 247 163 235 254 252 38 350 320 308 306 301 298 301 298 299 300 299 291 292 295 289 283 284
100 129 163 145 152 190 207 206 212 226 207 217 199 231 158 37 131 206 141 209 229 61 207 235 240 295 352 342 326 319 320 315 312 309 308 306 304 304 298 296 294 295 290 284
148 170 152 182 208 223 200 187 186 214 189 177 157 351 199 204 187 196 236 240 193 252 237 234 170 0 327 326 324 322 320 316 313 314 316 313 309 302 295 289 290 288 284 296
159 151 188 211 220 253 227 189 288 239 133 123 44 213 150 211 224 219 259 256 238 224 238 255 320 326 326 319 321 321 320 323 321 322 317 315 314 315 307 305 302 297 289 290
141 188 168 216 90 271 225 188 229 215 166 118 57 183 192 245 193 180 216 225 229 253 257 307 329 319 323 322 326 324 328 330 329 330 335 332 335 327 321 318 328 322 316 317
193 219 198 166 219 206 203 169 211 159 133 173 127 191 216 106 210 221 210 218 243 268 314 323 309 321 322 323 327 337 339 338 337 336 343 341 342 337 353 357 354 352 353 352